Regional Weather Roundup
Issued by NWS Sterling, VA

Home | Current Version | Previous Version | Graphics & Text | Print | Product List | Glossary On
Versions: 1 2 3 4 5 6 7 8 9 10 11 12 13 14 15 16 17 18 19 20 21 22 23 24 25 26 27 28 29 30 31 32 33 34 35 36 37 38 39 40 41 42 43 44 45 46 47 48 49 50
000
ASUS41 KLWX 201510
RWRLWX

REGIONAL WEATHER ROUNDUP
NATIONAL WEATHER SERVICE BALTIMORE MD/WASHINGTON DC
1100 AM EDT WED AUG 20 2014

Note: "FAIR" indicates few or no clouds below 12,000 feet
with no significant weather and/or obstructions to visibility.
 TC=TEMPERATURE CELSIUS

 * =Non NWS site. Station does not report precipitation (e.g. rain,
    snow, etc.), thunder, or fog.

DCZ001-MDZ009-015-VAZ040>042-051-053>054-201600-
WASHINGTON METRO
  /KDAA//-FT BELVOIR

CITY           SKY/WX    TMP DP  RH WIND       PRES   REMARKS
WASHINGTON NAT PTSUNNY   80  65  59 S7        30.00S
DULLES         PTSUNNY   76  67  73 S8        30.01R
ANDREWS AFB    MOSUNNY   78  66  66 SE7       30.01R
QUANTICO       PTSUNNY   78  68  71 SW6       30.01R
COLLEGE PARK*  CLOUDY    79  63  57 SE3       30.00S
LEESBURG*      PTSUNNY   81  72  74 S9        30.01S
MANASSAS*      CLOUDY    75  72  88 S6        30.00R
GAITHERSBURG*  MOSUNNY   79  64  61 S7        30.04F

$$

MDZ006>007-011-014-201600-
BALTIMORE METRO

CITY           SKY/WX    TMP DP  RH WIND       PRES   REMARKS
BWI AIRPORT    PTSUNNY   79  65  62 SE5       30.00R
MD SCIENCE CTR   N/A     78  66  66 MISG      30.01R
MARTIN STATE   PTSUNNY   75  70  83 SE5       30.03R
ANNAPOLIS      CLOUDY    75  66  73 SE9       30.01R
FORT MEADE*    MOSUNNY   77  64  65 S6        30.03S

$$

MDZ012-015-019>023-201600-
MARYLAND EASTERN SHORE

CITY           SKY/WX    TMP DP  RH WIND       PRES   REMARKS
OCEAN CITY     SUNNY     78  67  68 E8        30.01R
SALISBURY      SUNNY     81  62  52 E8        30.01R
BAY BRIDGE AP*   N/A     77  61  57 SE7       30.02R
CAMBRIDGE*     SUNNY     79  61  53 SE3       30.00R
EASTON*        PTSUNNY   81  64  57 SE3       30.05R

$$

MDZ017>025-201600-
SOUTHERN MARYLAND

CITY           SKY/WX    TMP DP  RH WIND       PRES   REMARKS
PATUXENT RIVER MOSUNNY   77  67  71 E8        30.01R
ST INIGOES     SUNNY     80  65  59 E7        30.00R
LEONARDTOWN*   SUNNY     77  63  61 E5        30.02R

$$

MDZ003>005-201600-
NORTH CENTRAL MARYLAND

CITY           SKY/WX    TMP DP  RH WIND       PRES   REMARKS
FREDERICK*     PTSUNNY   81  70  69 S8        30.02R
HAGERSTOWN APT CLOUDY    77  69  76 S8        29.99R
WESTMINSTER*   PTSUNNY   79  64  61 S7        30.02S

$$

MDZ501>502-201600-
WESTERN MARYLAND

CITY           SKY/WX    TMP DP  RH WIND       PRES   REMARKS
OAKLAND*       CLOUDY    63 N/A N/A W3        30.07R FOG
CUMBERLAND*    CLOUDY    73  70  88 CALM      30.02S

$$

VAZ025>031-201600-
SHENANDOAH VALLEY

CITY           SKY/WX    TMP DP  RH WIND       PRES   REMARKS
WINCHESTER*    CLOUDY    79  70  73 S8        29.98F
STAUNTON*      MOSUNNY   79  68  69 S5        30.03S

$$

WVZ021-048>050-054>055-201600-
EASTERN WEST VIRGINIA PANHANDLE

CITY           SKY/WX    TMP DP  RH WIND       PRES   REMARKS
MARTINSBURG    PTSUNNY   82  68  62 S9        29.98S
PETERSBURG*    NOT AVBL

$$

VAZ036>039-050-201600-
CENTRAL FOOTHILLS

CITY           SKY/WX    TMP DP  RH WIND       PRES   REMARKS
CHARLOTTESVILL PTSUNNY   78  71  79 SE9       30.00S
ORANGE*        CLOUDY    77  70  78 S5        30.02S

$$

VAZ055>057-201600-
NORTH AND CENTRAL PIEDMONT

CITY           SKY/WX    TMP DP  RH WIND       PRES   REMARKS
FREDERICKSBRG* MOSUNNY   81  67  62 S3        30.00R
STAFFORD*      MOSUNNY   79  68  67 S3        30.04S

$$

NCZ024-NYZ072-PAZ021-071-VAZ022-071-201600-
OTHER REGIONAL OBSERVATIONS

CITY           SKY/WX    TMP DP  RH WIND       PRES   REMARKS
NEW YORK CITY  MOSUNNY   78  59  51 CALM      30.04R
PHILADELPHIA   PTSUNNY   78  61  55 SE3       30.01S
PITTSBURGH     CLOUDY    67  65  93 VRB6      29.94F
ROANOKE        PTSUNNY   75  68  78 CALM      30.03F
RICHMOND       PTSUNNY   81  67  62 VRB5      30.00R
RALEIGH        PTSUNNY   80  71  74 N3        30.02R

$$

ANZ530>537-201600-
MARINE OBSERVATIONS

STATION/POSITION TIME  TEMP    WIND        PRES
                       AIR SEA DIR/SP/G
                 (UTC) (F)     (DEG/KT/KT) (MB)
THOMAS PT LIGHT  1500   74 77  180/  5/  6 1017.0R
BALT KEY BRIDGE  1500   75     120/  5/  6 1016.1R
COVE POINT       1500   74     180/  5/  5 1016.2R
LEWISETTA        1500   75 78  120/  6/  7 1015.9R
SOLOMONS ISLAND  1500      79                N/A
PINEY POINT      1500          140/  6/  6   N/A

$$




USA.gov is the U.S. government's official web portal to all federal, state and local government web resources and services.